Home > Weather > Singapore > Past weeks

Flag for Singapore Weather for the Past 2 Weeks in Singapore, Singapore

Now
88 °F

Partly sunny.


Feels Like: 98 °F
Forecast: 79 / 89 °F
Wind: 12 mph from Northeast

Location: Singapore / Paya Lebar

Current Time: Feb 11, 2016 at 3:16:59 PM

Latest Report: Feb 11, 2016 at 3:00 PM


Visibility: N/A

Pressure: 29.80 "Hg

Humidity: 66%

Dew point: 75 °F

Location of SingaporeLocation

Historic Weather in Singapore — Graph

°F

Singapore Temperature Yesterday

Maximum temperature yesterday: 86 °F (at 2:00 PM)
Minimum temperature yesterday: 79 °F (at 11:00 PM)
Average temperature yesterday: 82 °F

High & Low Weather Summary for the Past Weeks

 TemperatureHumidityPressure
High95 °F (Jan 28, 3:00 PM)94% (Feb 2, 8:00 AM)29.92 "Hg (Feb 2, 8:00 AM)
Low77 °F (Feb 7, 5:00 AM)53% (Jan 28, 3:00 PM)29.68 "Hg (Feb 5, 5:00 PM)
Average84 °F76%29.82 "Hg
* Reported Jan 27 2:00 PM — Feb 11 2:00 PM, Singapore, Weather by CustomWeather, © 2016

Note: Actual official high and low records may vary slightly from our data, if they occured in-between our weather recording intervals... More about our weather records

Advertising

Singapore Weather History for the Previous 24 Hours

 ConditionsComfort  
Time TempWeatherWind HumidityBarometerVisibility
2:00 PM
Thu, Feb 11
86 °FBroken clouds.9 mph75%29.80 "HgN/A
1:00 PM84 °FBroken clouds.10 mph79%29.83 "HgN/A
12:00 PM82 °FScattered clouds.10 mph84%29.83 "HgN/A
11:00 AM82 °FPartly sunny.9 mph84%29.83 "HgN/A
10:00 AM81 °FPartly sunny.10 mph84%29.83 "HgN/A
9:00 AM81 °FPartly sunny.9 mph84%29.83 "HgN/A
8:00 AM79 °FPartly sunny.9 mph89%29.83 "HgN/A
7:00 AM79 °FPassing clouds.9 mph94%29.83 "HgN/A
6:00 AM79 °FPassing clouds.8 mph94%29.80 "HgN/A
5:00 AM79 °FPassing clouds.10 mph94%29.80 "HgN/A
11:00 PM
Wed, Feb 10
79 °FLight rain. Passing clouds.12 mph89%29.89 "HgN/A
10:00 PM81 °FPassing clouds.13 mph84%29.89 "HgN/A
9:00 PM81 °FPartly cloudy.10 mph84%29.89 "HgN/A
8:00 PM81 °FPassing clouds.15 mph79%29.86 "HgN/A
7:00 PM82 °FPartly sunny.10 mph79%29.83 "HgN/A
6:00 PM82 °FPartly sunny.14 mph79%29.83 "HgN/A
5:00 PM82 °FLight rain. Broken clouds.13 mph79%29.80 "HgN/A
4:00 PM82 °FBroken clouds.12 mph79%29.80 "HgN/A
3:00 PM84 °FPartly sunny.15 mph74%29.83 "HgN/A
Weather by CustomWeather, © 2016

See weather overviewHow to use our weather pages